Hourly Weather Suharevo

Today, 20 January, Wednesday

Time Temperature Precipitation Wind Pressure Humidity
00:00 -28°C° 0 mm 1 mps 749 mmHg 99%
01:00 -29°C° 0 mm 1 mps 750 mmHg 99%
02:00 -29°C° 0 mm 1 mps 751 mmHg 99%
03:00 -30°C° 0 mm 1 mps 751 mmHg 99%
04:00 -31°C° 0 mm 1 mps 752 mmHg 99%
05:00 -31°C° 0 mm 1 mps 752 mmHg 99%
06:00 -32°C° 0 mm 1 mps 752 mmHg 99%
07:00 -32°C° 0 mm 1 mps 753 mmHg 99%
08:00 -32°C° 0 mm 1 mps 753 mmHg 98%
09:00 -32°C° 0 mm 1 mps 753 mmHg 98%
10:00 -31°C° 0 mm 1 mps 754 mmHg 96%
11:00 -28°C° 0 mm 0 mps 754 mmHg 93%
12:00 -26°C° 0 mm 0 mps 755 mmHg 91%
13:00 -26°C° 0 mm 0 mps 755 mmHg 92%
14:00 -26°C° 0 mm 0 mps 755 mmHg 92%
15:00 -25°C° 0 mm 0 mps 755 mmHg 92%
16:00 -27°C° 0 mm 0 mps 755 mmHg 94%
17:00 -28°C° 0 mm 0 mps 755 mmHg 95%
18:00 -30°C° 0 mm 0 mps 755 mmHg 96%
19:00 -31°C° 0 mm 1 mps 755 mmHg 95%
20:00 -30°C° 0 mm 1 mps 755 mmHg 95%
21:00 -30°C° 0 mm 1 mps 754 mmHg 95%
22:00 -30°C° 0 mm 1 mps 754 mmHg 94%
23:00 -31°C° 0 mm 2 mps 754 mmHg 94%

Tomorrow, 21 January, Thursday

Time Temperature Precipitation Wind Pressure Humidity
00:00 -31°C° 0 mm 2 mps 753 mmHg 94%
01:00 -30°C° 0 mm 2 mps 753 mmHg 93%
02:00 -29°C° 0 mm 2 mps 752 mmHg 92%
03:00 -28°C° 0 mm 2 mps 751 mmHg 91%
04:00 -28°C° 0 mm 2 mps 750 mmHg 92%
05:00 -27°C° 0 mm 2 mps 750 mmHg 92%
06:00 -27°C° 0 mm 2 mps 750 mmHg 92%
07:00 -26°C° 0.1 mm 2 mps 749 mmHg 94%
08:00 -26°C° 0.1 mm 2 mps 748 mmHg 96%
09:00 -25°C° 0.1 mm 2 mps 747 mmHg 97%
10:00 -24°C° 0.1 mm 2 mps 747 mmHg 96%
11:00 -23°C° 0.1 mm 2 mps 747 mmHg 96%
12:00 -19°C° 0.1 mm 1 mps 747 mmHg 95%
13:00 -20°C° 0 mm 2 mps 746 mmHg 94%
14:00 -19°C° 0 mm 2 mps 746 mmHg 94%
15:00 -18°C° 0 mm 2 mps 746 mmHg 93%
16:00 -18°C° 0 mm 2 mps 746 mmHg 95%
17:00 -19°C° 0 mm 2 mps 746 mmHg 96%
18:00 -19°C° 0 mm 2 mps 745 mmHg 97%
19:00 -20°C° 0 mm 2 mps 745 mmHg 97%
20:00 -20°C° 0 mm 2 mps 745 mmHg 98%
21:00 -21°C° 0 mm 2 mps 745 mmHg 98%
22:00 -21°C° 0 mm 2 mps 744 mmHg 98%
23:00 -21°C° 0 mm 2 mps 744 mmHg 98%

Day after tomorrow, 22 January, Friday

Time Temperature Precipitation Wind Pressure Humidity
00:00 -20°C° 0 mm 1 mps 744 mmHg 98%
01:00 -20°C° 0 mm 1 mps 743 mmHg 98%
02:00 -19°C° 0 mm 1 mps 743 mmHg 98%
03:00 -19°C° 0 mm 1 mps 742 mmHg 97%
04:00 -19°C° 0 mm 1 mps 742 mmHg 97%
05:00 -19°C° 0 mm 1 mps 741 mmHg 97%
06:00 -19°C° 0 mm 0 mps 741 mmHg 96%
07:00 -18°C° 0.1 mm 0 mps 741 mmHg 97%
08:00 -18°C° 0.1 mm 0 mps 740 mmHg 97%
09:00 -17°C° 0.1 mm 0 mps 740 mmHg 97%
10:00 -16°C° 0.2 mm 0 mps 740 mmHg 95%
11:00 -16°C° 0.2 mm 0 mps 739 mmHg 94%
12:00 -15°C° 0.2 mm 0 mps 739 mmHg 93%
13:00 -15°C° 0.1 mm 0 mps 739 mmHg 93%
14:00 -15°C° 0.1 mm 1 mps 739 mmHg 93%
15:00 -15°C° 0.1 mm 1 mps 739 mmHg 93%
16:00 -16°C° 0 mm 1 mps 740 mmHg 95%
17:00 -17°C° 0 mm 1 mps 740 mmHg 97%
18:00 -19°C° 0 mm 1 mps 741 mmHg 98%
19:00 -20°C° 0 mm 1 mps 742 mmHg 98%
20:00 -24°C° 0 mm 2 mps 742 mmHg 99%
21:00 -25°C° 0 mm 2 mps 743 mmHg 99%
22:00 -25°C° 0 mm 2 mps 744 mmHg 99%
23:00 -26°C° 0 mm 2 mps 745 mmHg 99%

23 January, Saturday

Time Temperature Precipitation Wind Pressure Humidity
00:00 -27°C° 0 mm 2 mps 745 mmHg 99%
01:00 -27°C° 0 mm 2 mps 746 mmHg 98%
02:00 -28°C° 0 mm 2 mps 747 mmHg 97%
03:00 -28°C° 0 mm 2 mps 748 mmHg 97%
04:00 -28°C° 0 mm 2 mps 748 mmHg 96%
05:00 -30°C° 0 mm 3 mps 748 mmHg 96%
06:00 -31°C° 0 mm 3 mps 749 mmHg 96%
07:00 -30°C° 0.1 mm 3 mps 749 mmHg 96%
08:00 -30°C° 0.1 mm 3 mps 750 mmHg 96%
09:00 -30°C° 0.1 mm 4 mps 751 mmHg 96%
10:00 -30°C° 0.1 mm 4 mps 751 mmHg 95%
11:00 -29°C° 0.1 mm 4 mps 751 mmHg 94%
12:00 -27°C° 0.1 mm 4 mps 751 mmHg 94%
13:00 -27°C° 0 mm 4 mps 752 mmHg 94%
14:00 -26°C° 0 mm 3 mps 752 mmHg 94%
15:00 -26°C° 0 mm 3 mps 753 mmHg 93%
16:00 -26°C° 0 mm 3 mps 753 mmHg 94%
17:00 -26°C° 0 mm 3 mps 753 mmHg 95%
18:00 -26°C° 0 mm 3 mps 754 mmHg 96%
19:00 -26°C° 0 mm 3 mps 754 mmHg 96%
20:00 -26°C° 0 mm 2 mps 754 mmHg 96%
21:00 -26°C° 0 mm 2 mps 754 mmHg 96%
22:00 -26°C° 0 mm 2 mps 754 mmHg 96%
23:00 -26°C° 0 mm 2 mps 754 mmHg 97%

24 January, Sunday

Time Temperature Precipitation Wind Pressure Humidity
00:00 -27°C° 0 mm 2 mps 754 mmHg 97%
01:00 -27°C° 0 mm 2 mps 755 mmHg 97%
02:00 -27°C° 0 mm 2 mps 755 mmHg 97%
03:00 -27°C° 0 mm 2 mps 755 mmHg 98%
04:00 -27°C° 0 mm 2 mps 755 mmHg 98%
05:00 -28°C° 0 mm 2 mps 756 mmHg 98%
06:00 -28°C° 0 mm 2 mps 756 mmHg 98%
07:00 -30°C° 0 mm 2 mps 756 mmHg 98%
08:00 -31°C° 0 mm 2 mps 757 mmHg 98%
09:00 -32°C° 0 mm 2 mps 758 mmHg 98%
10:00 -34°C° 0 mm 2 mps 758 mmHg 97%
11:00 -34°C° 0 mm 2 mps 758 mmHg 97%
12:00 -35°C° 0 mm 2 mps 759 mmHg 96%
13:00 -35°C° 0 mm 2 mps 759 mmHg 95%
14:00 -36°C° 0 mm 2 mps 760 mmHg 95%
15:00 -36°C° 0 mm 2 mps 760 mmHg 94%
16:00 -38°C° 0 mm 2 mps 761 mmHg 95%
17:00 -39°C° 0 mm 2 mps 762 mmHg 96%
18:00 -41°C° 0 mm 2 mps 762 mmHg 97%
19:00 -39°C° 0 mm 1 mps 763 mmHg 97%
20:00 -39°C° 0 mm 1 mps 763 mmHg 97%
21:00 -40°C° 0 mm 1 mps 763 mmHg 98%
22:00 -41°C° 0 mm 1 mps 764 mmHg 98%
23:00 -41°C° 0 mm 1 mps 764 mmHg 98%

25 January, Monday

Time Temperature Precipitation Wind Pressure Humidity
00:00 -41°C° 0 mm 1 mps 764 mmHg 98%
01:00 -42°C° 0 mm 1 mps 764 mmHg 98%
02:00 -42°C° 0 mm 1 mps 764 mmHg 97%
03:00 -42°C° 0 mm 1 mps 764 mmHg 97%
04:00 -42°C° 0 mm 1 mps 764 mmHg 97%
05:00 -42°C° 0 mm 1 mps 764 mmHg 97%
06:00 -42°C° 0 mm 1 mps 764 mmHg 97%
07:00 -42°C° 0 mm 1 mps 764 mmHg 97%
08:00 -42°C° 0 mm 1 mps 764 mmHg 97%
09:00 -42°C° 0 mm 1 mps 764 mmHg 97%
10:00 -40°C° 0 mm 1 mps 763 mmHg 95%
11:00 -37°C° 0 mm 1 mps 763 mmHg 94%
12:00 -35°C° 0 mm 1 mps 763 mmHg 93%
13:00 -34°C° 0 mm 1 mps 762 mmHg 92%
14:00 -33°C° 0 mm 1 mps 762 mmHg 92%
15:00 -32°C° 0 mm 1 mps 761 mmHg 92%
16:00 -32°C° 0 mm 1 mps 761 mmHg 93%
17:00 -33°C° 0 mm 1 mps 761 mmHg 94%
18:00 -33°C° 0 mm 1 mps 761 mmHg 95%
19:00 -33°C° 0 mm 1 mps 760 mmHg 95%
20:00 -32°C° 0 mm 1 mps 760 mmHg 95%
21:00 -32°C° 0 mm 1 mps 760 mmHg 95%
22:00 -35°C° 0 mm 2 mps 760 mmHg 95%
23:00 -35°C° 0 mm 2 mps 760 mmHg 95%
Show more